Starlink 3285

operational
NORAD ID: 50181 Int'l Des: 2021-125 Owner: SPXS Country: US Constellation: starlink
LEOCIRCULAR

Starlink 3285について

説明を読み込み中...

リアルタイム位置

3D地球を読み込み中...

次回通過

高度履歴

Altitude vs Time

uPlot chart will show altitude changes over time

軌道要素

1 50181U 21125AB 25351.13543890 -.00000166 00000-0 76353-5 0 9998
2 50181 53.2171 259.7322 0001286 84.5130 275.6009 15.08847544224142
Epoch: Dec 17, 2025 • Age: 13 hours

現在のステータス

高度 541.2 km
速度 7.60 km/s
衛星直下点 32.07°N, 74.21°E
打ち上げ日 Dec 18, 2021
運用期間 3.9 years
タイプ internet

技術仕様

分類 Payload
質量 290.00 kg
乾燥質量 270.00 kg
総質量 290.00 kg
長さ 0.20 m
直径 2.80 m
スパン 9.00 m
形状 Box + pan
製造者 SPXS
バスタイプ Starlink
フェーズステータス In Orbit
所有者/国 SPXS/US

大規模コンステレーション

Loading constellations...